Weather History for PAKN - September, 2013

Change the Weather History Date:

Monday, September 30, 2013

  Actual Average Record
Temperature  
Mean Temperature 36 °F 41 °F  
Max Temperature 43 °F 49 °F 70 °F (1954)
Min Temperature 29 °F 33 °F 16 °F (1957)
Degree Days  
Heating Degree Days 29 24  
Month to date heating degree days 534 523  
Since 1 July heating degree days 1037 1135  
Cooling Degree Days 0    
Month to date cooling degree days 0  
Year to date cooling degree days 4  
Moisture  
Dew Point 22 °F    
Average Humidity 0    
Maximum Humidity 0    
Minimum Humidity 0    
Precipitation  
Precipitation 0.00 in 0.09 in 0.87 in (2003)
Month to date precipitation 2.08 3.19  
Year to date precipitation 16.17 14.79  
Snow  
Snow 0.00 in 0.00 in T in (1992)
Month to date snowfall 0.0 0.1  
Since 1 July snowfall 0.0 0.1  
Since 1 September snowfall 0.0 0.1  
Snow Depth 0.00 in    
Sea Level Pressure  
Sea Level Pressure 29.88 in    
Wind  
Wind Speed 12 mph (NNW)    
Max Wind Speed 25 mph    
Max Gust Speed 32 mph    
Visibility 10 miles    
Events      
T = Trace of Precipitation, MM = Missing Value Source: NWS Daily Summary

Daily Weather History Graph

Daily Weather History Graph

Search for Another Location

Airport or City:

Trip Planner

Search our weather history database for the weather conditions in past years. The results will help you decide how hot, cold, wet, or windy it might be!

Date:

Astronomy

Sep. 30, 2013 Rise Set
Actual Time 8:30 AM AKDT 8:01 PM AKDT
Civil Twilight 7:50 AM AKDT 8:41 PM AKDT
Nautical Twilight 7:03 AM AKDT 9:27 PM AKDT
Astronomical Twilight 6:14 AM AKDT 10:16 PM AKDT
Moon 3:28 AM AKDT (9/30) 6:19 PM AKDT (9/30)
Length of Visible Light 12h 50m
Length of Day
11h 31m
Waning Crescent, 18% of the Moon is Illuminated
Sep 30
Waning Crescent
Oct 4
New
Oct 11
First Quarter
Oct 18
Full
Oct 26
Last Quarter

Hourly Weather History & Observations

Time (AKDT) Temp. Windchill Dew Point Humidity Pressure Visibility Wind Dir Wind Speed Gust Speed Precip Events Conditions
12:54 AM 35.1 °F 24.1 °F 21.9 °F 59% 29.81 in 10.0 mi NNW 19.6 mph 31.1 mph N/A   Overcast
1:54 AM 35.1 °F 25.5 °F 21.9 °F 59% 29.83 in 10.0 mi NNW 15.0 mph 31.1 mph N/A   Overcast
2:54 AM 34.0 °F 23.4 °F 21.0 °F 59% 29.84 in 10.0 mi NNW 17.3 mph 25.3 mph N/A   Clear
3:54 AM 32.0 °F 23.0 °F 21.9 °F 66% 29.86 in 10.0 mi NW 11.5 mph - N/A   Clear
4:54 AM 30.9 °F 21.2 °F 21.9 °F 69% 29.87 in 10.0 mi NW 12.7 mph - N/A   Clear
5:54 AM 30.0 °F 21.7 °F 21.9 °F 72% 29.88 in 10.0 mi NW 9.2 mph - N/A   Clear
6:54 AM 30.0 °F 21.7 °F 21.9 °F 72% 29.89 in 10.0 mi NW 9.2 mph - N/A   Clear
7:54 AM 28.9 °F 20.4 °F 21.9 °F 75% 29.90 in 10.0 mi WNW 9.2 mph - N/A   Partly Cloudy
8:54 AM 30.0 °F 21.7 °F 21.9 °F 72% 29.90 in 10.0 mi WNW 9.2 mph - N/A   Partly Cloudy
9:54 AM 33.1 °F 24.4 °F 21.9 °F 64% 29.91 in 10.0 mi NW 11.5 mph - N/A   Partly Cloudy
10:54 AM 36.0 °F 26.3 °F 21.9 °F 57% 29.91 in 10.0 mi NNW 16.1 mph 20.7 mph N/A   Partly Cloudy
11:54 AM 37.9 °F 29.2 °F 21.0 °F 51% 29.90 in 10.0 mi NNW 15.0 mph 26.5 mph N/A   Partly Cloudy
12:54 PM 39.0 °F 29.6 °F 21.9 °F 50% 29.90 in 10.0 mi NNW 18.4 mph 26.5 mph N/A   Partly Cloudy
1:54 PM 41.0 °F 33.5 °F 21.9 °F 47% 29.89 in 10.0 mi NNW 13.8 mph 26.5 mph N/A   Scattered Clouds
2:54 PM 42.1 °F 34.2 °F 21.0 °F 43% 29.88 in 10.0 mi NNW 16.1 mph 26.5 mph N/A   Partly Cloudy
3:54 PM 42.1 °F 34.2 °F 21.0 °F 43% 29.88 in 10.0 mi NW 16.1 mph 24.2 mph N/A   Partly Cloudy
4:54 PM 42.1 °F 34.5 °F 21.0 °F 43% 29.87 in 10.0 mi NNW 15.0 mph 26.5 mph N/A   Partly Cloudy
5:54 PM 42.1 °F 34.9 °F 21.0 °F 43% 29.88 in 10.0 mi North 13.8 mph 23.0 mph N/A   Partly Cloudy
6:54 PM 41.0 °F 33.9 °F 21.9 °F 47% 29.89 in 10.0 mi North 12.7 mph 21.9 mph N/A   Partly Cloudy
7:54 PM 37.9 °F 32.7 °F 21.9 °F 53% 29.89 in 10.0 mi NNW 6.9 mph - N/A   Scattered Clouds
8:54 PM 35.1 °F 28.6 °F 21.9 °F 59% 29.90 in 10.0 mi NW 8.1 mph - N/A   Mostly Cloudy
9:54 PM 34.0 °F 27.2 °F 21.9 °F 61% 29.91 in 10.0 mi NNW 8.1 mph - N/A   Scattered Clouds
10:54 PM 32.0 °F 24.8 °F 23.0 °F 69% 29.91 in 10.0 mi NNW 8.1 mph - N/A   Partly Cloudy
11:54 PM 30.9 °F 22.2 °F 21.9 °F 69% 29.92 in 10.0 mi NNW 10.4 mph - N/A   Clear